User: anonymous   Login
Location: Unspecified
(0.0000°N, 0.0000°E)
Time: 04:53:21
(UTC+00:00)
Language:

SJ-6A - Orbit

View from above orbital plane
View from above orbital plane
View from above satellite
View from above satellite

Ground track
Ground track

The orbit data is extracted from the following two-line orbital elements,

1 28413U 04035A   18113.87106663  .00000487  00000-0  50669-4 0  9990
2 28413  97.8069 130.3361 0018212  68.4437 291.8753 14.94300548741670
Epoch (UTC): 23 April 2018 20:54:20
Eccentricity: 0.0018212
inclination: 97.8069°
perigee height: 572 km
apogee height: 597 km
right ascension of ascending node: 130.3361°
argument of perigee: 68.4437°
revolutions per day: 14.94300548
mean anomaly at epoch: 291.8753°
orbit number at epoch: 74167

The dashed part of the orbit path shows where the satellite is in the earth's shadow,  

DLR